Time,TemperatureF,DewpointF,PressureIn,WindDirection,WindDirectionDegrees,WindSpeedMPH,WindSpeedGustMPH,Humidity,HourlyPrecipIn,Conditions,Clouds,dailyrainin,SolarRadiationWatts/m^2,SoftwareType,DateUTC
2013-02-23 00:00:00,26.0,23.0,-100.00,SE,135,1.0,-999.0,88,-99.99,,,-99.99,0.000000,,2013-02-23 05:00:00,
2013-02-23 00:42:00,26.0,23.0,-100.00,SE,135,1.0,-999.0,88,-99.99,,,-99.99,0.000000,,2013-02-23 05:42:00,
2013-02-23 00:52:00,26.0,23.0,-100.00,SE,135,1.0,-999.0,88,-99.99,,,-99.99,0.000000,,2013-02-23 05:52:00,
2013-02-23 01:00:00,26.0,23.0,-100.00,South,180,0.0,-999.0,90,-99.99,,,-99.99,0.000000,,2013-02-23 06:00:00,
2013-02-23 01:42:00,26.0,23.0,-100.00,South,180,0.0,-999.0,90,-99.99,,,-99.99,0.000000,,2013-02-23 06:42:00,
2013-02-23 01:52:00,26.0,23.0,-100.00,South,180,0.0,-999.0,90,-99.99,,,-99.99,0.000000,,2013-02-23 06:52:00,
2013-02-23 02:00:00,26.0,24.0,-100.00,South,180,0.0,-999.0,92,-99.99,,,-99.99,0.000000,,2013-02-23 07:00:00,
2013-02-23 02:42:00,26.0,24.0,-100.00,South,180,0.0,-999.0,92,-99.99,,,-99.99,0.000000,,2013-02-23 07:42:00,
2013-02-23 02:52:00,26.0,24.0,-100.00,South,180,0.0,-999.0,92,-99.99,,,-99.99,0.000000,,2013-02-23 07:52:00,
2013-02-23 03:00:00,26.0,25.0,-100.00,SSE,157,0.0,-999.0,93,-99.99,,,-99.99,0.000000,,2013-02-23 08:00:00,
2013-02-23 03:42:00,26.0,25.0,-100.00,SSE,157,0.0,-999.0,93,-99.99,,,-99.99,0.000000,,2013-02-23 08:42:00,
2013-02-23 03:53:00,26.0,25.0,-100.00,SSE,157,0.0,-999.0,93,-99.99,,,-99.99,0.000000,,2013-02-23 08:53:00,
2013-02-23 04:00:00,27.0,25.0,-100.00,South,180,0.0,-999.0,94,-99.99,,,-99.99,0.000000,,2013-02-23 09:00:00,
2013-02-23 04:42:00,27.0,25.0,-100.00,South,180,0.0,-999.0,94,-99.99,,,-99.99,0.000000,,2013-02-23 09:42:00,
2013-02-23 04:52:00,27.0,25.0,-100.00,South,180,0.0,-999.0,94,-99.99,,,-99.99,0.000000,,2013-02-23 09:52:00,
2013-02-23 05:00:00,27.0,25.0,-100.00,SE,135,0.0,-999.0,94,-99.99,,,-99.99,0.000000,,2013-02-23 10:00:00,
2013-02-23 05:42:00,27.0,25.0,-100.00,SE,135,0.0,-999.0,94,-99.99,,,-99.99,0.000000,,2013-02-23 10:42:00,
2013-02-23 05:52:00,27.0,25.0,-100.00,SE,135,0.0,-999.0,94,-99.99,,,-99.99,0.000000,,2013-02-23 10:52:00,
2013-02-23 06:00:00,27.0,26.0,-100.00,SE,135,0.0,-999.0,94,-99.99,,,-99.99,0.000000,,2013-02-23 11:00:00,
2013-02-23 06:42:00,27.0,26.0,-100.00,SE,135,0.0,-999.0,94,-99.99,,,-99.99,0.000000,,2013-02-23 11:42:00,
2013-02-23 06:53:00,27.0,26.0,-100.00,SE,135,0.0,-999.0,94,-99.99,,,-99.99,0.000000,,2013-02-23 11:53:00,
2013-02-23 07:00:00,28.0,26.0,-100.00,South,180,0.0,-999.0,94,-99.99,,,-99.99,0.000000,,2013-02-23 12:00:00,
2013-02-23 07:42:00,28.0,26.0,-100.00,South,180,0.0,-999.0,94,-99.99,,,-99.99,0.000000,,2013-02-23 12:42:00,
2013-02-23 07:53:00,28.0,26.0,-100.00,South,180,0.0,-999.0,94,-99.99,,,-99.99,0.000000,,2013-02-23 12:53:00,
2013-02-23 08:00:00,28.0,27.0,-100.00,South,180,0.0,-999.0,94,-99.99,,,-99.99,1.160000,,2013-02-23 13:00:00,
2013-02-23 08:42:00,28.0,27.0,-100.00,South,180,0.0,-999.0,94,-99.99,,,-99.99,1.160000,,2013-02-23 13:42:00,
2013-02-23 08:52:00,28.0,27.0,-100.00,South,180,0.0,-999.0,94,-99.99,,,-99.99,1.160000,,2013-02-23 13:52:00,
2013-02-23 09:00:00,28.0,27.0,-100.00,WSW,247,2.0,-999.0,95,-99.99,,,-99.99,15.080000,,2013-02-23 14:00:00,
2013-02-23 09:42:00,28.0,27.0,-100.00,WSW,247,2.0,-999.0,95,-99.99,,,-99.99,15.080000,,2013-02-23 14:42:00,
2013-02-23 09:52:00,28.0,27.0,-100.00,WSW,247,2.0,-999.0,95,-99.99,,,-99.99,15.080000,,2013-02-23 14:52:00,
2013-02-23 10:00:00,29.0,27.0,-100.00,West,270,5.0,-999.0,93,-99.99,,,-99.99,42.919998,,2013-02-23 15:00:00,
2013-02-23 10:42:00,29.0,27.0,-100.00,West,270,5.0,-999.0,93,-99.99,,,-99.99,42.919998,,2013-02-23 15:42:00,
2013-02-23 10:52:00,29.0,27.0,-100.00,West,270,5.0,-999.0,93,-99.99,,,-99.99,42.919998,,2013-02-23 15:52:00,
2013-02-23 11:00:00,29.0,26.0,-100.00,WSW,247,5.0,-999.0,88,0.01,,,-99.99,68.440002,,2013-02-23 16:00:00,
2013-02-23 11:42:00,29.0,26.0,-100.00,WSW,247,5.0,-999.0,88,0.01,,,-99.99,68.440002,,2013-02-23 16:42:00,
2013-02-23 11:52:00,29.0,26.0,-100.00,WSW,247,5.0,-999.0,88,0.01,,,-99.99,68.440002,,2013-02-23 16:52:00,
2013-02-23 12:00:00,30.0,26.0,-100.00,WSW,247,3.0,-999.0,82,0.06,,,-99.99,136.880005,,2013-02-23 17:00:00,
2013-02-23 12:42:00,30.0,26.0,-100.00,WSW,247,3.0,-999.0,82,0.06,,,-99.99,136.880005,,2013-02-23 17:42:00,
2013-02-23 12:52:00,30.0,26.0,-100.00,WSW,247,3.0,-999.0,82,0.06,,,-99.99,136.880005,,2013-02-23 17:52:00,
2013-02-23 13:00:00,30.0,26.0,-100.00,WSW,247,4.0,-999.0,84,0.05,,,-99.99,134.559998,,2013-02-23 18:00:00,
2013-02-23 13:42:00,30.0,26.0,-100.00,WSW,247,4.0,-999.0,84,0.05,,,-99.99,134.559998,,2013-02-23 18:42:00,
2013-02-23 13:52:00,30.0,26.0,-100.00,WSW,247,4.0,-999.0,84,0.05,,,-99.99,134.559998,,2013-02-23 18:52:00,
2013-02-23 14:00:00,29.0,26.0,-100.00,WSW,247,4.0,-999.0,88,-99.99,,,-99.99,119.480003,,2013-02-23 19:00:00,
2013-02-23 14:42:00,29.0,26.0,-100.00,WSW,247,4.0,-999.0,88,-99.99,,,-99.99,119.480003,,2013-02-23 19:42:00,
2013-02-23 14:52:00,29.0,26.0,-100.00,WSW,247,4.0,-999.0,88,-99.99,,,-99.99,119.480003,,2013-02-23 19:52:00,
2013-02-23 15:00:00,29.0,27.0,-100.00,WSW,247,5.0,-999.0,91,-99.99,,,-99.99,89.320000,,2013-02-23 20:00:00,
2013-02-23 15:42:00,29.0,27.0,-100.00,WSW,247,5.0,-999.0,91,-99.99,,,-99.99,89.320000,,2013-02-23 20:42:00,
2013-02-23 15:53:00,29.0,27.0,-100.00,WSW,247,5.0,-999.0,91,-99.99,,,-99.99,89.320000,,2013-02-23 20:53:00,
2013-02-23 16:00:00,28.0,25.0,-100.00,WSW,247,5.0,-999.0,88,-99.99,,,-99.99,75.400002,,2013-02-23 21:00:00,
2013-02-23 16:42:00,28.0,25.0,-100.00,WSW,247,5.0,-999.0,88,-99.99,,,-99.99,75.400002,,2013-02-23 21:42:00,
2013-02-23 16:52:00,28.0,25.0,-100.00,WSW,247,5.0,-999.0,88,-99.99,,,-99.99,75.400002,,2013-02-23 21:52:00,
2013-02-23 17:00:00,28.0,26.0,-100.00,WSW,247,4.0,-999.0,89,-99.99,,,-99.99,78.879997,,2013-02-23 22:00:00,
2013-02-23 17:42:00,28.0,26.0,-100.00,WSW,247,4.0,-999.0,89,-99.99,,,-99.99,78.879997,,2013-02-23 22:42:00,
2013-02-23 17:52:00,28.0,26.0,-100.00,WSW,247,4.0,-999.0,89,-99.99,,,-99.99,78.879997,,2013-02-23 22:52:00,
2013-02-23 18:00:00,28.0,24.0,-100.00,WSW,247,4.0,-999.0,82,-99.99,,,-99.99,52.200001,,2013-02-23 23:00:00,
2013-02-23 18:42:00,28.0,24.0,-100.00,WSW,247,4.0,-999.0,82,-99.99,,,-99.99,52.200001,,2013-02-23 23:42:00,
2013-02-23 18:52:00,28.0,24.0,-100.00,WSW,247,4.0,-999.0,82,-99.99,,,-99.99,52.200001,,2013-02-23 23:52:00,
2013-02-23 19:00:00,28.0,23.0,-100.00,WSW,247,4.0,-999.0,80,-99.99,,,-99.99,2.320000,,2013-02-24 00:00:00,
2013-02-23 19:42:00,28.0,23.0,-100.00,WSW,247,4.0,-999.0,80,-99.99,,,-99.99,2.320000,,2013-02-24 00:42:00,
2013-02-23 19:52:00,28.0,23.0,-100.00,WSW,247,4.0,-999.0,80,-99.99,,,-99.99,2.320000,,2013-02-24 00:52:00,
2013-02-23 20:00:00,28.0,23.0,-100.00,WSW,247,2.0,-999.0,84,-99.99,,,-99.99,0.000000,,2013-02-24 01:00:00,
2013-02-23 20:42:00,28.0,23.0,-100.00,WSW,247,2.0,-999.0,84,-99.99,,,-99.99,0.000000,,2013-02-24 01:42:00,
2013-02-23 20:52:00,28.0,23.0,-100.00,WSW,247,2.0,-999.0,84,-99.99,,,-99.99,0.000000,,2013-02-24 01:52:00,
2013-02-23 21:00:00,27.0,25.0,-100.00,SW,225,1.0,-999.0,93,-99.99,,,-99.99,0.000000,,2013-02-24 02:00:00,
2013-02-23 21:42:00,27.0,25.0,-100.00,SW,225,1.0,-999.0,93,-99.99,,,-99.99,0.000000,,2013-02-24 02:42:00,
2013-02-23 21:52:00,27.0,25.0,-100.00,SW,225,1.0,-999.0,93,-99.99,,,-99.99,0.000000,,2013-02-24 02:52:00,
2013-02-23 22:00:00,27.0,25.0,-100.00,WSW,247,1.0,-999.0,94,-99.99,,,-99.99,0.000000,,2013-02-24 03:00:00,
2013-02-23 22:42:00,27.0,25.0,-100.00,WSW,247,1.0,-999.0,94,-99.99,,,-99.99,0.000000,,2013-02-24 03:42:00,
2013-02-23 22:52:00,27.0,25.0,-100.00,WSW,247,1.0,-999.0,94,-99.99,,,-99.99,0.000000,,2013-02-24 03:52:00,
2013-02-23 23:00:00,27.0,26.0,-100.00,SW,225,1.0,-999.0,93,-99.99,,,-99.99,0.000000,,2013-02-24 04:00:00,
2013-02-23 23:42:00,27.0,26.0,-100.00,SW,225,1.0,-999.0,93,-99.99,,,-99.99,0.000000,,2013-02-24 04:42:00,
2013-02-23 23:52:00,27.0,26.0,-100.00,SW,225,1.0,-999.0,93,-99.99,,,-99.99,0.000000,,2013-02-24 04:52:00,